Location: *
(12.5665°N, 8.3471°E)
Time: 09:35:28
(UTC+00:00)

CZ-4B R/B - Pass Details

Date: 23 September 2019
Orbit: 808 x 882 km, 99.1° (Epoch: 18 October)

Event Time Altitude Azimuth Distance (km) Brightness Sun altitude
Rises 04:31:03 0° 14° (NNE) 3,371 6.6 -11.7°
Reaches altitude 10° 04:33:25 10° 16° (NNE) 2,427 5.8 -11.2°
Maximum altitude 04:38:47 80° 103° (ESE) 833 3.3 -9.8°
Drops below altitude 10° 04:44:04 10° 190° (S) 2,392 5.4 -8.6°
Sets 04:46:23 0° 191° (S) 3,318 6.2 -8.0°
